STARLINK-3153 (49431 NORAD) Tracking and Keplerian Element Data

This shows tracking and keplerian element data for the satellite.

Feedback or suggestion? Click here.




ElementValue
Catalog49431
NameSTARLINK-3153
Epoch Orbit486
Epoch Day340.25001157
Epoch Year2021
RAAN20.5941
Inclination53.2186
Eccentricity0.0001993
Argument of Perigee31.0824
Mean Anonmoly123.1509
Mean Motion15.73223978
Decay Rate-3.596E-05
L11 49431U 21104Z 21340.25001157 -.00003596 00000+0 -21178-4 0 9997
L22 49431 53.2186 20.5941 0001993 31.0824 123.1509 15.73223978 4865

Live tracking and technical data element details for STARLINK-3153 (NORAD 49431). STARLINK-3153 can be tracked NOW for your location showing map with azimuth and elevation plus other details from your city location.

Track the satellite on the map from your city or location and see movement details for azimuth, elevation, latitude, longitude, range, height, and movement on the map or in text.







IsCatalogInMostPopularTable: catalog: 49431, numindb: 1
Update: records affected: 1



GetName: 49431 STARLINK-3153

Hit Count: updated at: Wed, 08 Dec 2021 15:16:59 GMT